{"data":{"norad_id":46784,"epoch":"2026-05-25T00:00:02.000160Z","epoch_age_seconds":74944,"freshness":"FRESH","line1":"1 46784U 20074AX  26145.00002315  .00009727  00000+0  56900-4 0  9999","line2":"2 46784  53.0442 257.2193 0005717 340.6459  74.9636 15.79179134  6007","mean_motion":15.79179134,"eccentricity":0.0005717,"inclination_deg":53.0442,"raan_deg":257.2193,"arg_perigee_deg":340.6459,"mean_anomaly_deg":74.9636,"bstar":5.69e-5,"rev_number":600,"period_min":91.186615184848,"perigee_km":328.92858134092,"apogee_km":336.60182692112,"semimajor_km":6710.902204131,"source":"CELESTRAK","updated_at":"2026-05-25T13:38:16.519851Z"}}